| time (UTC) | temp F | wind direction | speed MPH | gust MPH | rain 1hr in | rain 24hr in | rain mn in | humidity % | barometer mb |
| 20260906103059 | 75 | 329 | 0.0 | 0.0 | 0.00 | 1.20 | 0.00 | 87 | 1012.5 |
| 20260906101522 | 75 | 329 | 0.0 | 0.0 | 0.00 | 1.20 | 0.00 | 87 | 1012.5 |
| 20260906100047 | 75 | 329 | 0.0 | 0.0 | 0.00 | 1.20 | 0.00 | 87 | 1012.5 |
| 20260906094505 | 76 | 329 | 0.0 | 0.0 | 0.00 | 1.20 | 0.00 | 87 | 1012.4 |
| 20260906093050 | 76 | 329 | 0.0 | 0.0 | 0.00 | 1.20 | 0.00 | 87 | 1012.3 |
| 20260906091510 | 76 | 329 | 0.0 | 0.0 | 0.00 | 1.20 | 0.00 | 87 | 1012.4 |
| 20260906090111 | 76 | 329 | 0.0 | 0.0 | 0.00 | 1.20 | 0.00 | 87 | 1012.4 |
| 20260906084517 | 76 | 329 | 0.0 | 0.0 | 0.00 | 1.20 | 0.00 | 87 | 1012.3 |
| 20260906083043 | 76 | 329 | 0.0 | 0.0 | 0.00 | 1.20 | 0.00 | 87 | 1012.3 |
| 20260906081602 | 76 | 329 | 0.0 | 1.0 | 0.00 | 1.20 | 0.00 | 88 | 1012.4 |
| 20260906081506 | 76 | 329 | 0.0 | 1.0 | 0.00 | 1.20 | 0.00 | 88 | 1012.4 |
| 20260906080027 | 76 | 329 | 0.0 | 0.0 | 0.00 | 1.20 | 0.00 | 88 | 1012.4 |
| 20260906074556 | 76 | 329 | 0.0 | 0.0 | 0.00 | 1.20 | 0.00 | 88 | 1012.5 |
| 20260906073025 | 76 | 329 | 0.0 | 0.0 | 0.00 | 1.20 | 0.00 | 88 | 1012.6 |
| 20260906071550 | 76 | 329 | 0.0 | 0.0 | 0.00 | 1.20 | 0.00 | 88 | 1012.6 |
| 20260906070023 | 76 | 329 | 0.0 | 0.0 | 0.00 | 1.20 | 0.00 | 88 | 1012.7 |
| 20260906064555 | 76 | 329 | 0.0 | 0.0 | 0.00 | 1.20 | 0.00 | 88 | 1012.6 |
| 20260906063018 | 76 | 329 | 0.0 | 0.0 | 0.00 | 1.20 | 0.00 | 88 | 1012.6 |
| 20260906061551 | 75 | 329 | 0.0 | 0.0 | 0.00 | 1.20 | 0.00 | 88 | 1012.6 |
| 20260906060011 | 75 | 329 | 0.0 | 0.0 | 0.00 | 1.20 | 0.00 | 88 | 1012.7 |
| 20260906054543 | 75 | 329 | 0.0 | 0.0 | 0.00 | 1.20 | 0.00 | 88 | 1012.7 |
| 20260906053013 | 75 | 329 | 0.0 | 0.0 | 0.00 | 1.20 | 0.00 | 88 | 1012.6 |
| 20260906051538 | 75 | 329 | 0.0 | 0.0 | 0.00 | 1.20 | 0.00 | 88 | 1012.7 |
| 20260906050057 | 76 | 329 | 0.0 | 0.0 | 0.00 | 1.20 | 0.00 | 88 | 1012.7 |
| 20260906044550 | 76 | 329 | 0.0 | 1.0 | 0.00 | 1.20 | 1.20 | 88 | 1012.6 |
| 20260906043022 | 76 | 329 | 0.0 | 0.0 | 0.00 | 1.20 | 1.20 | 88 | 1012.6 |
| 20260906041552 | 76 | 329 | 0.0 | 0.0 | 0.00 | 1.20 | 1.20 | 88 | 1012.6 |
| 20260906040022 | 76 | 329 | 0.0 | 0.0 | 0.00 | 1.20 | 1.20 | 88 | 1012.6 |
| 20260906034550 | 76 | 329 | 0.0 | 0.0 | 0.00 | 1.20 | 1.20 | 88 | 1012.7 |
| 20260906033030 | 76 | 329 | 0.0 | 0.0 | 0.00 | 1.20 | 1.20 | 88 | 1012.8 |
| 20260906031559 | 76 | 329 | 0.0 | 0.0 | 0.00 | 1.20 | 1.20 | 88 | 1012.9 |
| 20260906030036 | 76 | 329 | 0.0 | 1.0 | 0.00 | 1.20 | 1.20 | 88 | 1012.8 |
| 20260906024508 | 76 | 329 | 0.0 | 0.0 | 0.00 | 1.20 | 1.20 | 88 | 1012.6 |
| 20260906023032 | 76 | 329 | 0.0 | 0.0 | 0.00 | 1.20 | 1.20 | 88 | 1012.3 |
| 20260906021601 | 76 | 329 | 0.0 | 0.0 | 0.00 | 1.20 | 1.20 | 88 | 1012.2 |
| 20260906021502 | 76 | 329 | 0.0 | 0.0 | 0.00 | 1.20 | 1.20 | 88 | 1012.1 |
| 20260906020032 | 76 | 329 | 0.0 | 0.0 | 0.00 | 1.20 | 1.20 | 88 | 1012.2 |
| 20260906014510 | 76 | 329 | 0.0 | 0.0 | 0.00 | 1.20 | 1.20 | 89 | 1012.0 |
| 20260906013032 | 76 | 329 | 0.0 | 0.0 | 0.00 | 1.20 | 1.20 | 89 | 1011.9 |
| 20260906011601 | 76 | 329 | 0.0 | 0.0 | 0.00 | 1.20 | 1.20 | 88 | 1011.8 |
| 20260906010054 | 77 | 329 | 0.0 | 1.0 | 0.01 | 1.20 | 1.20 | 88 | 1011.5 |
| 20260906004504 | 77 | 329 | 0.0 | 0.0 | 0.01 | 1.20 | 1.20 | 88 | 1011.8 |
| 20260906003028 | 77 | 329 | 0.0 | 0.0 | 0.01 | 1.20 | 1.20 | 88 | 1011.8 |
| 20260906001606 | 77 | 329 | 0.0 | 1.0 | 0.02 | 1.20 | 1.20 | 88 | 1012.1 |
| 20260906001502 | 77 | 329 | 0.0 | 1.0 | 0.02 | 1.20 | 1.20 | 88 | 1012.1 |
| 20260906000032 | 78 | 329 | 0.0 | 1.0 | 0.01 | 1.19 | 1.19 | 88 | 1012.3 |
| 20260905234504 | 78 | 329 | 0.0 | 2.0 | 0.02 | 1.19 | 1.19 | 88 | 1012.5 |
| 20260905233033 | 78 | 329 | 0.0 | 1.0 | 0.02 | 1.19 | 1.19 | 88 | 1012.5 |
| 20260905231504 | 79 | 329 | 0.0 | 2.0 | 0.01 | 1.18 | 1.18 | 88 | 1012.3 |
| 20260905230036 | 79 | 330 | 0.0 | 2.0 | 0.01 | 1.18 | 1.18 | 88 | 1012.4 |
| 20260905224554 | 79 | 330 | 0.0 | 1.0 | 0.00 | 1.17 | 1.17 | 88 | 1012.4 |
| 20260905223035 | 79 | 330 | 0.0 | 0.0 | 0.02 | 1.17 | 1.17 | 88 | 1012.0 |
| 20260905221553 | 79 | 330 | 0.0 | 1.0 | 0.02 | 1.17 | 1.17 | 88 | 1012.3 |
| 20260905220025 | 78 | 330 | 0.0 | 2.0 | 0.05 | 1.17 | 1.17 | 87 | 1011.9 |
| 20260905214548 | 79 | 330 | 0.0 | 2.0 | 0.19 | 1.17 | 1.17 | 86 | 1011.9 |
| 20260905213020 | 79 | 330 | 1.0 | 3.0 | 1.10 | 1.14 | 1.14 | 84 | 1012.2 |
| 20260905211549 | 80 | 352 | 1.0 | 2.0 | 1.14 | 1.14 | 1.14 | 81 | 1012.2 |
| 20260905210017 | 81 | 32 | 2.0 | 4.0 | 1.11 | 1.11 | 1.12 | 76 | 1012.3 |
| 20260905204546 | 86 | 59 | 4.0 | 13.0 | 0.98 | 0.98 | 0.98 | 65 | 1012.4 |
| 20260905203003 | 96 | 141 | 0.0 | 4.0 | 0.03 | 0.03 | 0.07 | 55 | 1012.4 |
| 20260905201551 | 98 | 162 | 1.0 | 3.0 | 0.00 | 0.00 | 0.00 | 46 | 1012.0 |
| 20260905200004 | 98 | 192 | 3.0 | 6.0 | 0.00 | 0.00 | 0.00 | 45 | 1012.1 |
| 20260905194531 | 97 | 190 | 2.0 | 6.0 | 0.00 | 0.00 | 0.00 | 46 | 1012.1 |
| 20260905193053 | 96 | 197 | 2.0 | 5.0 | 0.00 | 0.00 | 0.00 | 51 | 1012.3 |
| 20260905191524 | 93 | 191 | 1.0 | 7.0 | 0.00 | 0.00 | 0.00 | 57 | 1012.7 |
| 20260905190036 | 91 | 186 | 0.0 | 2.0 | 0.00 | 0.00 | 0.00 | 59 | 1012.8 |
| 20260905184606 | 91 | 190 | 0.0 | 1.0 | 0.00 | 0.00 | 0.00 | 59 | 1012.9 |
| 20260905183041 | 91 | 190 | 0.0 | 3.0 | 0.00 | 0.00 | 0.00 | 59 | 1013.1 |
| 20260905181553 | 91 | 189 | 0.0 | 5.0 | 0.00 | 0.00 | 0.00 | 59 | 1013.2 |
| 20260905180020 | 90 | 186 | 0.0 | 5.0 | 0.00 | 0.00 | 0.00 | 61 | 1013.4 |
| 20260905174545 | 89 | 186 | 0.0 | 3.0 | 0.00 | 0.00 | 0.00 | 61 | 1013.8 |
| 20260905173020 | 90 | 187 | 1.0 | 3.0 | 0.00 | 0.00 | 0.00 | 61 | 1014.1 |
| 20260905171548 | 89 | 149 | 1.0 | 3.0 | 0.00 | 0.00 | 0.00 | 65 | 1014.3 |
| 20260905170012 | 89 | 71 | 0.0 | 2.0 | 0.00 | 0.00 | 0.00 | 65 | 1014.5 |
| 20260905164537 | 89 | 71 | 0.0 | 3.0 | 0.00 | 0.00 | 0.00 | 66 | 1014.6 |
| 20260905163059 | 89 | 72 | 1.0 | 3.0 | 0.00 | 0.00 | 0.00 | 66 | 1014.5 |
| 20260905163002 | 89 | 72 | 1.0 | 3.0 | 0.00 | 0.00 | 0.00 | 67 | 1014.6 |
| 20260905161526 | 87 | 74 | 2.0 | 4.0 | 0.00 | 0.00 | 0.00 | 71 | 1014.6 |
| 20260905160049 | 85 | 187 | 1.0 | 3.0 | 0.00 | 0.00 | 0.00 | 78 | 1014.6 |
| 20260905154513 | 82 | 181 | 1.0 | 5.0 | 0.00 | 0.00 | 0.00 | 85 | 1014.7 |
| 20260905153041 | 81 | 312 | 1.0 | 3.0 | 0.00 | 0.00 | 0.00 | 87 | 1014.8 |
| 20260905151503 | 81 | 312 | 1.0 | 4.0 | 0.00 | 0.00 | 0.00 | 88 | 1014.6 |
| 20260905150029 | 81 | 303 | 0.0 | 4.0 | 0.00 | 0.00 | 0.00 | 88 | 1014.7 |
| 20260905144600 | 80 | 178 | 0.0 | 3.0 | 0.00 | 0.00 | 0.00 | 88 | 1014.5 |
| 20260905143021 | 80 | 177 | 0.0 | 2.0 | 0.00 | 0.00 | 0.00 | 88 | 1014.6 |
| 20260905141547 | 79 | 177 | 2.0 | 5.0 | 0.00 | 0.00 | 0.00 | 88 | 1014.6 |
| 20260905140011 | 79 | 177 | 0.0 | 0.0 | 0.00 | 0.00 | 0.00 | 88 | 1014.6 |
| 20260905134546 | 78 | 177 | 0.0 | 2.0 | 0.00 | 0.00 | 0.00 | 88 | 1014.5 |
| 20260905133058 | 78 | 177 | 0.0 | 1.0 | 0.00 | 0.00 | 0.00 | 88 | 1014.5 |
| 20260905131530 | 77 | 177 | 0.0 | 0.0 | 0.00 | 0.00 | 0.00 | 88 | 1014.4 |
| 20260905130059 | 77 | 177 | 0.0 | 0.0 | 0.00 | 0.00 | 0.00 | 88 | 1014.3 |
| 20260905130005 | 76 | 177 | 0.0 | 0.0 | 0.00 | 0.00 | 0.00 | 88 | 1014.3 |
| 20260905124528 | 76 | 177 | 0.0 | 0.0 | 0.00 | 0.00 | 0.00 | 88 | 1014.2 |
| 20260905123104 | 76 | 177 | 0.0 | 0.0 | 0.00 | 0.00 | 0.00 | 88 | 1014.0 |
| 20260905121516 | 76 | 177 | 0.0 | 0.0 | 0.00 | 0.00 | 0.00 | 88 | 1013.8 |
| 20260905120046 | 76 | 177 | 0.0 | 0.0 | 0.00 | 0.00 | 0.00 | 88 | 1013.5 |
| 20260905114512 | 77 | 177 | 0.0 | 0.0 | 0.00 | 0.00 | 0.00 | 88 | 1013.4 |
| 20260905113043 | 77 | 177 | 0.0 | 0.0 | 0.00 | 0.00 | 0.00 | 88 | 1013.3 |
| 20260905111504 | 77 | 177 | 0.0 | 0.0 | 0.00 | 0.00 | 0.00 | 88 | 1013.2 |
| 20260905110033 | 77 | 177 | 0.0 | 0.0 | 0.00 | 0.00 | 0.00 | 88 | 1013.0 |
| 20260905104506 | 77 | 177 | 0.0 | 0.0 | 0.00 | 0.00 | 0.00 | 88 | 1013.0 |